FLOCK 2'-12

Last updated on Tue Aug 02 2016 17:39:13 GMT+0000 (Coordinated Universal Time)

1 41614U 16040R 16215.48486678 .00003070 00000-0 14558-3 0 9999 2 41614 97.5063 274.4350 0013334 114.6213 245.6413 15.19975752 6221
UTC large
Height (km)
Speed (km/s)
/
Latitude / Longitude
Inclination (degrees)
Orbital Period (minutes)
Azimuth
Elevation
Range (km)
Doppler Factor

Next 0 passes for location: London (51.5072 / 0.1276)

Sorry there are no passes over London.